Time,TemperatureF,DewpointF,PressureIn,WindDirection,WindDirectionDegrees,WindSpeedMPH,WindSpeedGustMPH,Humidity,HourlyPrecipIn,Conditions,Clouds,dailyrainin,SolarRadiationWatts/m^2,SoftwareType,DateUTC
2013-10-25 00:05:00,37.9,29.7,30.41,ENE,77,0.0,12.0,72,0.00,,,0.00,0,Wunderground v.1.15,2013-10-25 05:05:00,
2013-10-25 00:11:00,38.0,29.8,30.41,ENE,77,0.0,12.0,72,0.00,,,0.00,0,Wunderground v.1.15,2013-10-25 05:11:00,
2013-10-25 00:17:00,38.1,29.5,30.41,ENE,77,0.0,12.0,71,0.00,,,0.00,0,Wunderground v.1.15,2013-10-25 05:17:00,
2013-10-25 00:23:00,38.3,29.7,30.41,ENE,77,0.0,12.0,71,0.00,,,0.00,0,Wunderground v.1.15,2013-10-25 05:23:00,
2013-10-25 00:29:00,38.2,29.6,30.41,ENE,77,0.0,12.0,71,0.00,,,0.00,0,Wunderground v.1.15,2013-10-25 05:29:00,
2013-10-25 00:35:00,38.1,29.5,30.41,ENE,77,0.0,12.0,71,0.00,,,0.00,0,Wunderground v.1.15,2013-10-25 05:35:00,
2013-10-25 00:41:00,38.0,29.4,30.41,ENE,77,0.0,12.0,71,0.00,,,0.00,0,Wunderground v.1.15,2013-10-25 05:41:00,
2013-10-25 00:47:00,37.8,29.6,30.41,ENE,77,0.0,12.0,72,0.00,,,0.00,0,Wunderground v.1.15,2013-10-25 05:47:00,
2013-10-25 00:53:00,37.6,29.4,30.42,ENE,77,0.0,12.0,72,0.00,,,0.00,0,Wunderground v.1.15,2013-10-25 05:53:00,
2013-10-25 00:59:00,37.5,29.6,30.42,ENE,77,0.0,12.0,73,0.00,,,0.00,0,Wunderground v.1.15,2013-10-25 05:59:00,
2013-10-25 01:05:00,37.3,29.4,30.42,ENE,77,0.0,0.0,73,0.00,,,0.00,0,Wunderground v.1.15,2013-10-25 06:05:00,
2013-10-25 01:11:00,37.3,29.4,30.42,ENE,77,0.0,0.0,73,0.00,,,0.00,0,Wunderground v.1.15,2013-10-25 06:11:00,
2013-10-25 01:17:00,37.2,29.3,30.42,ENE,77,0.0,0.0,73,0.00,,,0.00,0,Wunderground v.1.15,2013-10-25 06:17:00,
2013-10-25 01:23:00,36.9,29.4,30.42,ENE,77,0.0,0.0,74,0.00,,,0.00,0,Wunderground v.1.15,2013-10-25 06:23:00,
2013-10-25 01:29:00,36.8,29.3,30.42,ENE,77,0.0,0.0,74,0.00,,,0.00,0,Wunderground v.1.15,2013-10-25 06:29:00,
2013-10-25 01:35:00,36.7,29.5,30.42,ENE,77,0.0,0.0,75,0.00,,,0.00,0,Wunderground v.1.15,2013-10-25 06:35:00,
2013-10-25 01:41:00,36.7,29.5,30.42,ENE,77,0.0,0.0,75,0.00,,,0.00,0,Wunderground v.1.15,2013-10-25 06:41:00,
2013-10-25 01:47:00,36.6,29.4,30.42,ENE,77,0.0,0.0,75,0.00,,,0.00,0,Wunderground v.1.15,2013-10-25 06:47:00,
2013-10-25 01:53:00,36.6,29.4,30.42,ENE,77,0.0,0.0,75,0.00,,,0.00,0,Wunderground v.1.15,2013-10-25 06:53:00,
2013-10-25 01:59:00,36.3,29.1,30.42,ENE,77,0.0,0.0,75,0.00,,,0.00,0,Wunderground v.1.15,2013-10-25 06:59:00,
2013-10-25 02:05:00,36.2,29.4,30.42,ENE,77,0.0,0.0,76,0.00,,,0.00,0,Wunderground v.1.15,2013-10-25 07:05:00,
2013-10-25 02:11:00,36.2,29.4,30.42,ENE,77,0.0,0.0,76,0.00,,,0.00,0,Wunderground v.1.15,2013-10-25 07:11:00,
2013-10-25 02:17:00,36.0,29.2,30.42,ENE,77,0.0,0.0,76,0.00,,,0.00,0,Wunderground v.1.15,2013-10-25 07:17:00,
2013-10-25 02:23:00,35.9,29.1,30.42,ENE,77,0.0,0.0,76,0.00,,,0.00,0,Wunderground v.1.15,2013-10-25 07:23:00,
2013-10-25 02:29:00,35.8,29.0,30.42,ENE,77,0.0,0.0,76,0.00,,,0.00,0,Wunderground v.1.15,2013-10-25 07:29:00,
2013-10-25 02:35:00,35.7,29.2,30.42,ENE,77,0.0,0.0,77,0.00,,,0.00,0,Wunderground v.1.15,2013-10-25 07:35:00,
2013-10-25 02:41:00,35.6,29.1,30.42,ENE,77,0.0,0.0,77,0.00,,,0.00,0,Wunderground v.1.15,2013-10-25 07:41:00,
2013-10-25 02:47:00,35.5,29.3,30.42,ENE,77,0.0,0.0,78,0.00,,,0.00,0,Wunderground v.1.15,2013-10-25 07:47:00,
2013-10-25 02:53:00,35.6,29.4,30.42,ENE,77,0.0,0.0,78,0.00,,,0.00,0,Wunderground v.1.15,2013-10-25 07:53:00,
2013-10-25 02:59:00,35.6,29.4,30.42,ENE,77,0.0,0.0,78,0.00,,,0.00,0,Wunderground v.1.15,2013-10-25 07:59:00,
2013-10-25 03:05:00,35.5,29.3,30.42,ENE,77,0.0,0.0,78,0.00,,,0.00,0,Wunderground v.1.15,2013-10-25 08:05:00,
2013-10-25 03:11:00,35.5,29.3,30.42,ENE,77,0.0,0.0,78,0.00,,,0.00,0,Wunderground v.1.15,2013-10-25 08:11:00,
2013-10-25 03:17:00,35.4,29.2,30.42,ENE,77,0.0,0.0,78,0.00,,,0.00,0,Wunderground v.1.15,2013-10-25 08:17:00,
2013-10-25 03:23:00,35.0,28.8,30.42,ENE,77,0.0,0.0,78,0.00,,,0.00,0,Wunderground v.1.15,2013-10-25 08:23:00,
2013-10-25 03:29:00,34.8,29.0,30.42,ENE,77,0.0,0.0,79,0.00,,,0.00,0,Wunderground v.1.15,2013-10-25 08:29:00,
2013-10-25 03:35:00,34.8,29.0,30.42,ENE,77,0.0,0.0,79,0.00,,,0.00,0,Wunderground v.1.15,2013-10-25 08:35:00,
2013-10-25 03:41:00,34.8,29.0,30.42,ENE,77,0.0,0.0,79,0.00,,,0.00,0,Wunderground v.1.15,2013-10-25 08:41:00,
2013-10-25 03:47:00,34.7,28.9,30.42,ENE,77,0.0,0.0,79,0.00,,,0.00,0,Wunderground v.1.15,2013-10-25 08:47:00,
2013-10-25 03:53:00,34.7,29.2,30.42,ENE,77,0.0,0.0,80,0.00,,,0.00,0,Wunderground v.1.15,2013-10-25 08:53:00,
2013-10-25 03:59:00,34.6,29.1,30.42,ENE,77,0.0,0.0,80,0.00,,,0.00,0,Wunderground v.1.15,2013-10-25 08:59:00,
2013-10-25 04:05:00,34.6,29.1,30.42,ENE,77,0.0,0.0,80,0.00,,,0.00,0,Wunderground v.1.15,2013-10-25 09:05:00,
2013-10-25 04:11:00,34.5,29.0,30.42,ENE,77,0.0,0.0,80,0.00,,,0.00,0,Wunderground v.1.15,2013-10-25 09:11:00,
2013-10-25 04:17:00,34.4,28.9,30.42,ENE,77,0.0,0.0,80,0.00,,,0.00,0,Wunderground v.1.15,2013-10-25 09:17:00,
2013-10-25 04:23:00,34.3,28.8,30.42,ENE,77,0.0,0.0,80,0.00,,,0.00,0,Wunderground v.1.15,2013-10-25 09:23:00,
2013-10-25 04:31:00,34.3,29.1,30.42,ENE,77,0.0,0.0,81,0.00,,,0.00,0,Wunderground v.1.15,2013-10-25 09:31:00,
2013-10-25 04:37:00,34.3,29.1,30.42,ENE,77,0.0,0.0,81,0.00,,,0.00,0,Wunderground v.1.15,2013-10-25 09:37:00,
2013-10-25 04:43:00,34.1,28.9,30.42,ENE,77,0.0,0.0,81,0.00,,,0.00,0,Wunderground v.1.15,2013-10-25 09:43:00,
2013-10-25 04:49:00,33.9,28.7,30.42,ENE,77,0.0,1.0,81,0.00,,,0.00,0,Wunderground v.1.15,2013-10-25 09:49:00,
2013-10-25 04:55:00,33.7,28.8,30.42,ENE,77,1.0,2.0,82,0.00,,,0.00,0,Wunderground v.1.15,2013-10-25 09:55:00,
2013-10-25 05:01:00,34.0,29.1,30.42,ENE,77,2.0,2.0,82,0.00,,,0.00,0,Wunderground v.1.15,2013-10-25 10:01:00,
2013-10-25 05:09:00,34.2,29.3,30.42,ENE,77,2.0,2.0,82,0.00,,,0.00,0,Wunderground v.1.15,2013-10-25 10:09:00,
2013-10-25 05:15:00,33.9,28.7,30.42,ENE,77,2.0,2.0,81,0.00,,,0.00,0,Wunderground v.1.15,2013-10-25 10:15:00,
2013-10-25 05:21:00,33.8,28.9,30.42,ENE,77,2.0,2.0,82,0.00,,,0.00,0,Wunderground v.1.15,2013-10-25 10:21:00,
2013-10-25 05:27:00,33.9,29.0,30.42,ENE,77,2.0,2.0,82,0.00,,,0.00,0,Wunderground v.1.15,2013-10-25 10:27:00,
2013-10-25 05:33:00,33.7,28.8,30.42,ENE,77,2.0,2.0,82,0.00,,,0.00,0,Wunderground v.1.15,2013-10-25 10:33:00,
2013-10-25 05:39:00,33.5,28.6,30.42,ENE,77,2.0,2.0,82,0.00,,,0.00,0,Wunderground v.1.15,2013-10-25 10:39:00,
2013-10-25 05:45:00,33.4,28.5,30.42,ENE,77,1.0,2.0,82,0.00,,,0.00,0,Wunderground v.1.15,2013-10-25 10:45:00,
2013-10-25 05:51:00,33.4,28.5,30.42,ENE,77,0.0,0.0,82,0.00,,,0.00,0,Wunderground v.1.15,2013-10-25 10:51:00,
2013-10-25 05:57:00,33.2,28.3,30.42,ENE,77,0.0,2.0,82,0.00,,,0.00,0,Wunderground v.1.15,2013-10-25 10:57:00,
2013-10-25 06:03:00,33.2,28.3,30.42,ENE,77,1.0,2.0,82,0.00,,,0.00,0,Wunderground v.1.15,2013-10-25 11:03:00,
2013-10-25 06:09:00,33.2,28.3,30.42,ENE,77,1.0,2.0,82,0.00,,,0.00,0,Wunderground v.1.15,2013-10-25 11:09:00,
2013-10-25 06:15:00,33.2,28.3,30.42,ENE,77,1.0,2.0,82,0.00,,,0.00,0,Wunderground v.1.15,2013-10-25 11:15:00,
2013-10-25 06:21:00,33.0,28.1,30.42,ENE,77,2.0,2.0,82,0.00,,,0.00,0,Wunderground v.1.15,2013-10-25 11:21:00,
2013-10-25 06:27:00,33.0,28.1,30.42,ENE,77,2.0,2.0,82,0.00,,,0.00,0,Wunderground v.1.15,2013-10-25 11:27:00,
2013-10-25 06:33:00,32.8,27.9,30.42,ENE,77,2.0,3.0,82,0.00,,,0.00,0,Wunderground v.1.15,2013-10-25 11:33:00,
2013-10-25 06:39:00,32.8,28.2,30.42,ENE,77,2.0,3.0,83,0.00,,,0.00,0,Wunderground v.1.15,2013-10-25 11:39:00,
2013-10-25 06:45:00,32.9,28.3,30.42,ENE,77,2.0,2.0,83,0.00,,,0.00,0,Wunderground v.1.15,2013-10-25 11:45:00,
2013-10-25 06:51:00,32.9,28.3,30.42,ENE,77,1.0,1.0,83,0.00,,,0.00,0,Wunderground v.1.15,2013-10-25 11:51:00,
2013-10-25 06:57:00,32.9,28.3,30.42,ENE,77,1.0,2.0,83,0.00,,,0.00,0,Wunderground v.1.15,2013-10-25 11:57:00,
2013-10-25 07:03:00,32.3,27.4,30.42,ENE,77,1.0,2.0,82,0.00,,,0.00,0,Wunderground v.1.15,2013-10-25 12:03:00,
2013-10-25 07:09:00,31.6,27.0,30.42,ENE,77,1.0,2.0,83,0.00,,,0.00,0,Wunderground v.1.15,2013-10-25 12:09:00,
2013-10-25 07:15:00,31.5,26.9,30.42,ENE,77,2.0,2.0,83,0.00,,,0.00,0,Wunderground v.1.15,2013-10-25 12:15:00,
2013-10-25 07:21:00,31.7,27.4,30.42,ENE,77,2.0,2.0,84,0.00,,,0.00,0,Wunderground v.1.15,2013-10-25 12:21:00,
2013-10-25 07:27:00,32.0,27.7,30.42,ENE,77,2.0,2.0,84,0.00,,,0.00,0,Wunderground v.1.15,2013-10-25 12:27:00,
2013-10-25 07:33:00,32.2,27.9,30.42,ENE,77,2.0,3.0,84,0.00,,,0.00,0,Wunderground v.1.15,2013-10-25 12:33:00,
2013-10-25 07:39:00,32.5,28.2,30.42,ENE,77,2.0,3.0,84,0.00,,,0.00,0,Wunderground v.1.15,2013-10-25 12:39:00,
2013-10-25 07:45:00,33.1,28.5,30.42,ENE,78,3.0,3.0,83,0.00,,,0.00,0,Wunderground v.1.15,2013-10-25 12:45:00,
2013-10-25 07:51:00,33.4,28.2,30.42,ENE,78,3.0,3.0,81,0.00,,,0.00,5,Wunderground v.1.15,2013-10-25 12:51:00,
2013-10-25 07:57:00,33.7,28.2,30.42,ENE,78,3.0,3.0,80,0.00,,,0.00,9,Wunderground v.1.15,2013-10-25 12:57:00,
2013-10-25 08:03:00,33.8,27.7,30.42,East,79,3.0,3.0,78,0.00,,,0.00,12,Wunderground v.1.15,2013-10-25 13:03:00,
2013-10-25 08:09:00,33.9,27.8,30.42,East,79,2.0,3.0,78,0.00,,,0.00,16,Wunderground v.1.15,2013-10-25 13:09:00,
2013-10-25 08:15:00,34.1,28.0,30.42,East,81,3.0,3.0,78,0.00,,,0.00,18,Wunderground v.1.15,2013-10-25 13:15:00,
2013-10-25 08:21:00,34.6,28.1,30.42,East,82,3.0,3.0,77,0.00,,,0.00,23,Wunderground v.1.15,2013-10-25 13:21:00,
2013-10-25 08:27:00,35.1,28.6,30.42,East,82,2.0,3.0,77,0.00,,,0.00,25,Wunderground v.1.15,2013-10-25 13:27:00,
2013-10-25 08:33:00,35.5,28.7,30.42,East,83,1.0,3.0,76,0.00,,,0.00,26,Wunderground v.1.15,2013-10-25 13:33:00,
2013-10-25 08:39:00,35.4,28.6,30.42,East,83,2.0,3.0,76,0.00,,,0.00,28,Wunderground v.1.15,2013-10-25 13:39:00,
2013-10-25 08:45:00,35.7,29.2,30.42,East,83,1.0,2.0,77,0.00,,,0.00,32,Wunderground v.1.15,2013-10-25 13:45:00,
2013-10-25 08:51:00,36.3,29.8,30.42,East,95,2.0,3.0,77,0.00,,,0.00,121,Wunderground v.1.15,2013-10-25 13:51:00,
2013-10-25 08:57:00,37.5,30.3,30.42,SSE,151,4.0,5.0,75,0.00,,,0.00,142,Wunderground v.1.15,2013-10-25 13:57:00,
2013-10-25 09:03:00,38.3,30.4,30.42,SSE,154,5.0,5.0,73,0.00,,,0.00,162,Wunderground v.1.15,2013-10-25 14:03:00,
2013-10-25 09:09:00,39.1,30.8,30.43,SSE,154,5.0,7.0,72,0.00,,,0.00,183,Wunderground v.1.15,2013-10-25 14:09:00,
2013-10-25 09:15:00,39.9,31.3,30.43,SSE,156,6.0,9.0,71,0.00,,,0.00,197,Wunderground v.1.15,2013-10-25 14:15:00,
2013-10-25 09:21:00,40.9,31.5,30.43,SSE,158,7.0,8.0,69,0.00,,,0.00,216,Wunderground v.1.15,2013-10-25 14:21:00,
2013-10-25 09:27:00,41.6,31.4,30.42,SSE,156,6.0,12.0,67,0.00,,,0.00,232,Wunderground v.1.15,2013-10-25 14:27:00,
2013-10-25 09:33:00,42.1,30.8,30.42,SE,140,8.0,11.0,64,0.00,,,0.00,251,Wunderground v.1.15,2013-10-25 14:33:00,
2013-10-25 09:39:00,42.7,32.1,30.42,SSE,158,9.0,12.0,66,0.00,,,0.00,271,Wunderground v.1.15,2013-10-25 14:39:00,
2013-10-25 09:45:00,43.3,31.5,30.43,SSE,167,8.0,8.0,63,0.00,,,0.00,290,Wunderground v.1.15,2013-10-25 14:45:00,
2013-10-25 09:51:00,43.8,31.2,30.42,SSE,149,7.0,10.0,61,0.00,,,0.00,308,Wunderground v.1.15,2013-10-25 14:51:00,
2013-10-25 09:57:00,44.5,32.3,30.42,SSE,153,8.0,10.0,62,0.00,,,0.00,323,Wunderground v.1.15,2013-10-25 14:57:00,
2013-10-25 10:03:00,45.4,32.3,30.42,SSE,154,8.0,8.0,60,0.00,,,0.00,343,Wunderground v.1.15,2013-10-25 15:03:00,
2013-10-25 10:09:00,46.4,32.0,30.42,SSE,153,7.0,12.0,57,0.00,,,0.00,357,Wunderground v.1.15,2013-10-25 15:09:00,
2013-10-25 10:15:00,46.3,31.0,30.43,SSE,148,8.0,11.0,55,0.00,,,0.00,373,Wunderground v.1.15,2013-10-25 15:15:00,
2013-10-25 10:21:00,46.9,31.6,30.42,SE,140,9.0,10.0,55,0.00,,,0.00,388,Wunderground v.1.15,2013-10-25 15:21:00,
2013-10-25 10:27:00,47.6,32.2,30.42,South,171,10.0,12.0,55,0.00,,,0.00,404,Wunderground v.1.15,2013-10-25 15:27:00,
2013-10-25 10:33:00,47.8,31.0,30.42,South,172,11.0,13.0,52,0.00,,,0.00,418,Wunderground v.1.15,2013-10-25 15:33:00,
2013-10-25 10:39:00,48.1,31.3,30.42,SSE,166,12.0,13.0,52,0.00,,,0.00,434,Wunderground v.1.15,2013-10-25 15:39:00,
2013-10-25 10:45:00,48.7,31.4,30.42,SSE,163,10.0,11.0,51,0.00,,,0.00,448,Wunderground v.1.15,2013-10-25 15:45:00,
2013-10-25 10:51:00,49.6,31.2,30.42,SSE,160,9.0,9.0,49,0.00,,,0.00,461,Wunderground v.1.15,2013-10-25 15:51:00,
2013-10-25 10:57:00,50.2,31.8,30.42,South,177,9.0,9.0,49,0.00,,,0.00,473,Wunderground v.1.15,2013-10-25 15:57:00,
2013-10-25 11:03:00,50.5,31.0,30.42,South,185,9.0,13.0,47,0.00,,,0.00,487,Wunderground v.1.15,2013-10-25 16:03:00,
2013-10-25 11:09:00,50.5,29.9,30.42,South,181,10.0,13.0,45,0.00,,,0.00,501,Wunderground v.1.15,2013-10-25 16:09:00,
2013-10-25 11:15:00,50.9,30.3,30.42,South,172,10.0,11.0,45,0.00,,,0.00,512,Wunderground v.1.15,2013-10-25 16:15:00,
2013-10-25 11:21:00,51.3,31.2,30.41,South,183,9.0,9.0,46,0.00,,,0.00,522,Wunderground v.1.15,2013-10-25 16:21:00,
2013-10-25 11:27:00,52.0,31.3,30.41,SSE,152,8.0,9.0,45,0.00,,,0.00,534,Wunderground v.1.15,2013-10-25 16:27:00,
2013-10-25 11:33:00,52.3,31.0,30.40,South,175,9.0,12.0,44,0.00,,,0.00,547,Wunderground v.1.15,2013-10-25 16:33:00,
2013-10-25 11:39:00,52.6,30.1,30.40,South,171,9.0,12.0,42,0.00,,,0.00,552,Wunderground v.1.15,2013-10-25 16:39:00,
2013-10-25 11:45:00,53.3,30.8,30.40,SSE,160,8.0,13.0,42,0.00,,,0.00,566,Wunderground v.1.15,2013-10-25 16:45:00,
2013-10-25 11:51:00,53.0,29.3,30.40,South,173,9.0,9.0,40,0.00,,,0.00,573,Wunderground v.1.15,2013-10-25 16:51:00,
2013-10-25 11:57:00,53.3,29.6,30.40,SE,141,10.0,15.0,40,0.00,,,0.00,587,Wunderground v.1.15,2013-10-25 16:57:00,
2013-10-25 12:03:00,53.5,29.1,30.40,ESE,114,11.0,13.0,39,0.00,,,0.00,659,Wunderground v.1.15,2013-10-25 17:03:00,
2013-10-25 12:09:00,53.4,29.7,30.39,South,177,9.0,13.0,40,0.00,,,0.00,383,Wunderground v.1.15,2013-10-25 17:09:00,
2013-10-25 12:15:00,54.1,29.7,30.39,South,177,8.0,12.0,39,0.00,,,0.00,438,Wunderground v.1.15,2013-10-25 17:15:00,
2013-10-25 12:21:00,54.0,29.6,30.39,South,178,8.0,11.0,39,0.00,,,0.00,506,Wunderground v.1.15,2013-10-25 17:21:00,
2013-10-25 12:27:00,54.3,29.2,30.39,SSE,154,8.0,11.0,38,0.00,,,0.00,383,Wunderground v.1.15,2013-10-25 17:27:00,
2013-10-25 12:33:00,54.5,30.0,30.38,SSE,159,7.0,7.0,39,0.00,,,0.00,411,Wunderground v.1.15,2013-10-25 17:33:00,
2013-10-25 12:39:00,54.3,29.2,30.38,South,183,7.0,12.0,38,0.00,,,0.00,343,Wunderground v.1.15,2013-10-25 17:39:00,
2013-10-25 12:44:00,54.5,29.4,30.38,SSE,151,8.0,12.0,38,0.00,,,0.00,355,Wunderground v.1.15,2013-10-25 17:44:00,
2013-10-25 12:51:00,54.3,29.2,30.37,SSE,157,9.0,9.0,38,0.00,,,0.00,343,Wunderground v.1.15,2013-10-25 17:51:00,
2013-10-25 12:57:00,54.9,29.7,30.37,SSW,195,7.0,9.0,38,0.00,,,0.00,343,Wunderground v.1.15,2013-10-25 17:57:00,
2013-10-25 13:03:00,55.3,28.8,30.36,SSW,192,7.0,7.0,36,0.00,,,0.00,360,Wunderground v.1.15,2013-10-25 18:03:00,
2013-10-25 13:09:00,55.7,29.1,30.36,South,179,7.0,8.0,36,0.00,,,0.00,415,Wunderground v.1.15,2013-10-25 18:09:00,
2013-10-25 13:15:00,56.3,29.0,30.35,SSW,206,7.0,11.0,35,0.00,,,0.00,545,Wunderground v.1.15,2013-10-25 18:15:00,
2013-10-25 13:21:00,56.4,29.1,30.35,South,170,8.0,8.0,35,0.00,,,0.00,527,Wunderground v.1.15,2013-10-25 18:21:00,
2013-10-25 13:27:00,57.1,28.2,30.34,South,175,9.0,14.0,33,0.00,,,0.00,628,Wunderground v.1.15,2013-10-25 18:27:00,
2013-10-25 13:33:00,57.0,28.9,30.33,South,189,10.0,10.0,34,0.00,,,0.00,640,Wunderground v.1.15,2013-10-25 18:33:00,
2013-10-25 13:39:00,57.9,28.9,30.33,South,184,9.0,10.0,33,0.00,,,0.00,629,Wunderground v.1.15,2013-10-25 18:39:00,
2013-10-25 13:45:00,57.9,28.2,30.32,South,189,8.0,10.0,32,0.00,,,0.00,621,Wunderground v.1.15,2013-10-25 18:45:00,
2013-10-25 13:51:00,58.1,26.8,30.31,SSE,159,9.0,9.0,30,0.00,,,0.00,624,Wunderground v.1.15,2013-10-25 18:51:00,
2013-10-25 13:56:00,58.3,27.0,30.31,SSE,166,10.0,16.0,30,0.00,,,0.00,601,Wunderground v.1.15,2013-10-25 18:56:00,
2013-10-25 14:03:00,58.3,27.0,30.31,SSE,158,11.0,13.0,30,0.00,,,0.00,587,Wunderground v.1.15,2013-10-25 19:03:00,
2013-10-25 14:09:00,58.3,27.0,30.30,South,175,11.0,13.0,30,0.00,,,0.00,606,Wunderground v.1.15,2013-10-25 19:09:00,
2013-10-25 14:15:00,58.8,26.6,30.30,SSE,156,9.0,13.0,29,0.00,,,0.00,610,Wunderground v.1.15,2013-10-25 19:15:00,
2013-10-25 14:21:00,59.2,26.1,30.30,SSW,209,9.0,9.0,28,0.00,,,0.00,603,Wunderground v.1.15,2013-10-25 19:21:00,
2013-10-25 14:27:00,59.5,27.2,30.29,SSE,166,8.0,12.0,29,0.00,,,0.00,603,Wunderground v.1.15,2013-10-25 19:27:00,
2013-10-25 14:33:00,59.7,26.5,30.28,SE,146,8.0,12.0,28,0.00,,,0.00,592,Wunderground v.1.15,2013-10-25 19:33:00,
2013-10-25 14:39:00,59.2,26.9,30.28,SSE,162,10.0,12.0,29,0.00,,,0.00,570,Wunderground v.1.15,2013-10-25 19:39:00,
2013-10-25 14:45:00,59.7,28.2,30.27,South,170,10.0,11.0,30,0.00,,,0.00,548,Wunderground v.1.15,2013-10-25 19:45:00,
2013-10-25 14:51:00,60.2,28.6,30.27,South,185,9.0,9.0,30,0.00,,,0.00,540,Wunderground v.1.15,2013-10-25 19:51:00,
2013-10-25 14:57:00,60.2,27.8,30.27,SSE,165,8.0,10.0,29,0.00,,,0.00,548,Wunderground v.1.15,2013-10-25 19:57:00,
2013-10-25 15:03:00,60.5,28.9,30.27,South,173,9.0,14.0,30,0.00,,,0.00,547,Wunderground v.1.15,2013-10-25 20:03:00,
2013-10-25 15:09:00,60.1,27.7,30.26,SSE,150,9.0,15.0,29,0.00,,,0.00,506,Wunderground v.1.15,2013-10-25 20:09:00,
2013-10-25 15:15:00,59.9,28.4,30.26,South,180,8.0,9.0,30,0.00,,,0.00,446,Wunderground v.1.15,2013-10-25 20:15:00,
2013-10-25 15:21:00,60.0,30.0,30.26,SSE,166,8.0,11.0,32,0.00,,,0.00,490,Wunderground v.1.15,2013-10-25 20:21:00,
2013-10-25 15:27:00,60.0,30.0,30.25,SE,144,9.0,12.0,32,0.00,,,0.00,172,Wunderground v.1.15,2013-10-25 20:27:00,
2013-10-25 15:33:00,60.1,30.1,30.25,SSE,152,9.0,9.0,32,0.00,,,0.00,114,Wunderground v.1.15,2013-10-25 20:33:00,
2013-10-25 15:39:00,59.8,31.3,30.25,SSE,164,9.0,11.0,34,0.00,,,0.00,118,Wunderground v.1.15,2013-10-25 20:39:00,
2013-10-25 15:45:00,60.0,32.2,30.25,South,183,9.0,9.0,35,0.00,,,0.00,102,Wunderground v.1.15,2013-10-25 20:45:00,
2013-10-25 15:51:00,59.7,32.7,30.25,South,172,8.0,8.0,36,0.00,,,0.00,105,Wunderground v.1.15,2013-10-25 20:51:00,
2013-10-25 15:57:00,59.9,33.5,30.24,SSW,202,9.0,9.0,37,0.00,,,0.00,116,Wunderground v.1.15,2013-10-25 20:57:00,
2013-10-25 16:03:00,60.2,33.8,30.24,South,187,9.0,10.0,37,0.00,,,0.00,111,Wunderground v.1.15,2013-10-25 21:03:00,
2013-10-25 16:09:00,60.2,33.8,30.23,SE,146,9.0,10.0,37,0.00,,,0.00,121,Wunderground v.1.15,2013-10-25 21:09:00,
2013-10-25 16:15:00,60.7,34.3,30.23,South,177,7.0,9.0,37,0.00,,,0.00,406,Wunderground v.1.15,2013-10-25 21:15:00,
2013-10-25 16:21:00,60.4,34.0,30.23,SSE,155,8.0,11.0,37,0.00,,,0.00,394,Wunderground v.1.15,2013-10-25 21:21:00,
2013-10-25 16:27:00,60.3,34.6,30.22,SSW,200,11.0,14.0,38,0.00,,,0.00,364,Wunderground v.1.15,2013-10-25 21:27:00,
2013-10-25 16:33:00,60.6,34.8,30.22,SSE,164,9.0,10.0,38,0.00,,,0.00,353,Wunderground v.1.15,2013-10-25 21:33:00,
2013-10-25 16:39:00,60.5,34.1,30.22,SSE,164,8.0,10.0,37,0.00,,,0.00,327,Wunderground v.1.15,2013-10-25 21:39:00,
2013-10-25 16:45:00,60.0,35.0,30.22,South,183,8.0,10.0,39,0.00,,,0.00,308,Wunderground v.1.15,2013-10-25 21:45:00,
2013-10-25 16:51:00,59.9,34.9,30.22,SSE,168,8.0,8.0,39,0.00,,,0.00,292,Wunderground v.1.15,2013-10-25 21:51:00,
2013-10-25 16:57:00,59.9,34.9,30.21,SSE,162,8.0,12.0,39,0.00,,,0.00,246,Wunderground v.1.15,2013-10-25 21:57:00,
2013-10-25 17:03:00,59.9,36.1,30.21,South,175,8.0,10.0,41,0.00,,,0.00,229,Wunderground v.1.15,2013-10-25 22:03:00,
2013-10-25 17:09:00,59.9,35.5,30.20,SSE,158,8.0,10.0,40,0.00,,,0.00,250,Wunderground v.1.15,2013-10-25 22:09:00,
2013-10-25 17:15:00,59.8,36.0,30.20,South,178,9.0,13.0,41,0.00,,,0.00,221,Wunderground v.1.15,2013-10-25 22:15:00,
2013-10-25 17:21:00,59.7,36.6,30.20,SSE,157,10.0,10.0,42,0.00,,,0.00,225,Wunderground v.1.15,2013-10-25 22:21:00,
2013-10-25 17:27:00,59.6,37.1,30.20,SSW,209,10.0,13.0,43,0.00,,,0.00,199,Wunderground v.1.15,2013-10-25 22:27:00,
2013-10-25 17:33:00,59.4,36.3,30.20,South,190,10.0,13.0,42,0.00,,,0.00,181,Wunderground v.1.15,2013-10-25 22:33:00,
2013-10-25 17:39:00,59.3,37.4,30.19,SSE,160,9.0,14.0,44,0.00,,,0.00,146,Wunderground v.1.15,2013-10-25 22:39:00,
2013-10-25 17:44:00,59.0,37.1,30.19,SSE,164,9.0,11.0,44,0.00,,,0.00,91,Wunderground v.1.15,2013-10-25 22:44:00,
2013-10-25 17:51:00,58.4,37.7,30.19,South,174,10.0,10.0,46,0.00,,,0.00,88,Wunderground v.1.15,2013-10-25 22:51:00,
2013-10-25 17:57:00,58.1,38.0,30.19,SSE,164,9.0,10.0,47,0.00,,,0.00,49,Wunderground v.1.15,2013-10-25 22:57:00,
2013-10-25 18:03:00,57.8,37.7,30.18,SSE,147,8.0,12.0,47,0.00,,,0.00,30,Wunderground v.1.15,2013-10-25 23:03:00,
2013-10-25 18:09:00,57.4,37.9,30.19,South,174,10.0,13.0,48,0.00,,,0.00,25,Wunderground v.1.15,2013-10-25 23:09:00,
2013-10-25 18:15:00,57.0,37.5,30.18,SSE,156,10.0,10.0,48,0.00,,,0.00,19,Wunderground v.1.15,2013-10-25 23:15:00,
2013-10-25 18:21:00,56.4,38.0,30.19,South,169,9.0,9.0,50,0.00,,,0.00,16,Wunderground v.1.15,2013-10-25 23:21:00,
2013-10-25 18:27:00,56.1,37.7,30.19,South,179,8.0,9.0,50,0.00,,,0.00,12,Wunderground v.1.15,2013-10-25 23:27:00,
2013-10-25 18:33:00,55.7,37.8,30.19,South,183,6.0,10.0,51,0.00,,,0.00,5,Wunderground v.1.15,2013-10-25 23:33:00,
2013-10-25 18:39:00,55.2,37.9,30.20,South,184,4.0,10.0,52,0.00,,,0.00,0,Wunderground v.1.15,2013-10-25 23:39:00,
2013-10-25 18:45:00,55.2,38.4,30.20,South,174,5.0,7.0,53,0.00,,,0.00,0,Wunderground v.1.15,2013-10-25 23:45:00,
2013-10-25 18:51:00,55.3,38.4,30.20,South,171,6.0,6.0,53,0.00,,,0.00,0,Wunderground v.1.15,2013-10-25 23:51:00,
2013-10-25 18:57:00,55.3,38.4,30.19,South,177,6.0,6.0,53,0.00,,,0.00,0,Wunderground v.1.15,2013-10-25 23:57:00,
2013-10-25 19:03:00,55.3,38.0,30.20,South,172,5.0,6.0,52,0.00,,,0.00,0,Wunderground v.1.15,2013-10-26 00:03:00,
2013-10-25 19:09:00,55.2,38.4,30.20,South,174,5.0,6.0,53,0.00,,,0.00,0,Wunderground v.1.15,2013-10-26 00:09:00,
2013-10-25 19:15:00,55.2,38.4,30.20,SSE,168,7.0,7.0,53,0.00,,,0.00,0,Wunderground v.1.15,2013-10-26 00:15:00,
2013-10-25 19:21:00,54.8,38.0,30.20,SSE,166,7.0,7.0,53,0.00,,,0.00,0,Wunderground v.1.15,2013-10-26 00:21:00,
2013-10-25 19:27:00,54.1,37.8,30.20,SSE,164,7.0,9.0,54,0.00,,,0.00,0,Wunderground v.1.15,2013-10-26 00:27:00,
2013-10-25 19:33:00,53.6,37.8,30.20,South,185,6.0,8.0,55,0.00,,,0.00,0,Wunderground v.1.15,2013-10-26 00:33:00,
2013-10-25 19:39:00,53.1,37.8,30.20,SSE,160,6.0,8.0,56,0.00,,,0.00,0,Wunderground v.1.15,2013-10-26 00:39:00,
2013-10-25 19:45:00,52.8,38.0,30.20,SSE,161,6.0,6.0,57,0.00,,,0.00,0,Wunderground v.1.15,2013-10-26 00:45:00,
2013-10-25 19:51:00,52.4,38.0,30.20,South,190,6.0,7.0,58,0.00,,,0.00,0,Wunderground v.1.15,2013-10-26 00:51:00,
2013-10-25 19:57:00,52.0,38.1,30.19,SSE,163,5.0,7.0,59,0.00,,,0.00,0,Wunderground v.1.15,2013-10-26 00:57:00,
2013-10-25 20:03:00,51.6,37.7,30.20,SSE,158,4.0,5.0,59,0.00,,,0.00,0,Wunderground v.1.15,2013-10-26 01:03:00,
2013-10-25 20:09:00,51.2,37.8,30.20,SSE,153,4.0,5.0,60,0.00,,,0.00,0,Wunderground v.1.15,2013-10-26 01:09:00,
2013-10-25 20:15:00,50.7,37.7,30.19,SSE,156,4.0,4.0,61,0.00,,,0.00,0,Wunderground v.1.15,2013-10-26 01:15:00,
2013-10-25 20:21:00,50.2,37.7,30.20,SSE,158,3.0,3.0,62,0.00,,,0.00,0,Wunderground v.1.15,2013-10-26 01:21:00,
2013-10-25 20:26:00,49.7,37.6,30.19,SSE,158,3.0,4.0,63,0.00,,,0.00,0,Wunderground v.1.15,2013-10-26 01:26:00,
2013-10-25 20:33:00,49.3,37.6,30.19,SSE,156,3.0,4.0,64,0.00,,,0.00,0,Wunderground v.1.15,2013-10-26 01:33:00,
2013-10-25 20:39:00,49.2,37.9,30.19,SSE,162,4.0,5.0,65,0.00,,,0.00,0,Wunderground v.1.15,2013-10-26 01:39:00,
2013-10-25 20:45:00,49.1,37.8,30.19,SSE,161,4.0,5.0,65,0.00,,,0.00,0,Wunderground v.1.15,2013-10-26 01:45:00,
2013-10-25 20:51:00,48.9,37.6,30.19,SSE,168,4.0,4.0,65,0.00,,,0.00,0,Wunderground v.1.15,2013-10-26 01:51:00,
2013-10-25 20:57:00,48.7,37.8,30.18,SE,146,4.0,6.0,66,0.00,,,0.00,0,Wunderground v.1.15,2013-10-26 01:57:00,
2013-10-25 21:03:00,48.5,37.7,30.18,South,172,4.0,6.0,66,0.00,,,0.00,0,Wunderground v.1.15,2013-10-26 02:03:00,
2013-10-25 21:09:00,48.4,37.9,30.18,SSE,162,4.0,6.0,67,0.00,,,0.00,0,Wunderground v.1.15,2013-10-26 02:09:00,
2013-10-25 21:15:00,48.3,37.8,30.18,South,169,4.0,4.0,67,0.00,,,0.00,0,Wunderground v.1.15,2013-10-26 02:15:00,
2013-10-25 21:21:00,48.2,37.8,30.18,SSE,165,4.0,6.0,67,0.00,,,0.00,0,Wunderground v.1.15,2013-10-26 02:21:00,
2013-10-25 21:27:00,48.3,37.8,30.18,SSE,164,5.0,6.0,67,0.00,,,0.00,0,Wunderground v.1.15,2013-10-26 02:27:00,
2013-10-25 21:33:00,48.4,37.9,30.18,SSE,164,5.0,6.0,67,0.00,,,0.00,0,Wunderground v.1.15,2013-10-26 02:33:00,
2013-10-25 21:39:00,48.4,37.9,30.18,SSE,160,5.0,6.0,67,0.00,,,0.00,0,Wunderground v.1.15,2013-10-26 02:39:00,
2013-10-25 21:45:00,48.4,37.9,30.18,South,169,5.0,7.0,67,0.00,,,0.00,0,Wunderground v.1.15,2013-10-26 02:45:00,
2013-10-25 21:51:00,48.3,37.8,30.18,SE,143,5.0,9.0,67,0.00,,,0.00,0,Wunderground v.1.15,2013-10-26 02:51:00,
2013-10-25 21:57:00,48.2,38.1,30.17,South,169,5.0,9.0,68,0.00,,,0.00,0,Wunderground v.1.15,2013-10-26 02:57:00,
2013-10-25 22:03:00,48.1,38.0,30.17,SSE,165,5.0,8.0,68,0.00,,,0.00,0,Wunderground v.1.15,2013-10-26 03:03:00,
2013-10-25 22:09:00,48.0,37.9,30.17,SSE,165,5.0,8.0,68,0.00,,,0.00,0,Wunderground v.1.15,2013-10-26 03:09:00,
2013-10-25 22:15:00,47.9,38.2,30.18,SSE,162,5.0,8.0,69,0.00,,,0.00,0,Wunderground v.1.15,2013-10-26 03:15:00,
2013-10-25 22:21:00,47.7,38.0,30.18,South,169,5.0,6.0,69,0.00,,,0.00,0,Wunderground v.1.15,2013-10-26 03:21:00,
2013-10-25 22:27:00,47.8,38.1,30.17,SSE,164,5.0,7.0,69,0.00,,,0.00,0,Wunderground v.1.15,2013-10-26 03:27:00,
2013-10-25 22:33:00,47.8,38.5,30.17,SSE,163,5.0,9.0,70,0.00,,,0.00,0,Wunderground v.1.15,2013-10-26 03:33:00,
2013-10-25 22:39:00,47.8,38.1,30.17,South,172,6.0,9.0,69,0.00,,,0.00,0,Wunderground v.1.15,2013-10-26 03:39:00,
2013-10-25 22:45:00,47.8,38.5,30.17,SSE,168,5.0,7.0,70,0.00,,,0.00,0,Wunderground v.1.15,2013-10-26 03:45:00,
2013-10-25 22:51:00,47.7,38.4,30.17,South,179,5.0,5.0,70,0.00,,,0.00,0,Wunderground v.1.15,2013-10-26 03:51:00,
2013-10-25 22:57:00,47.6,38.3,30.17,South,170,5.0,6.0,70,0.00,,,0.00,0,Wunderground v.1.15,2013-10-26 03:57:00,
2013-10-25 23:01:00,47.5,38.2,30.17,SSE,161,4.0,5.0,70,0.00,,,0.00,0,Wunderground v.1.15,2013-10-26 04:01:00,
2013-10-25 23:02:00,47.5,38.2,30.17,South,169,4.0,5.0,70,0.00,,,0.00,0,Wunderground v.1.15,2013-10-26 04:02:00,
2013-10-25 23:09:00,47.5,38.6,30.17,SSE,161,4.0,5.0,71,0.00,,,0.00,0,Wunderground v.1.15,2013-10-26 04:09:00,
2013-10-25 23:11:00,47.4,38.5,30.17,SSE,163,4.0,4.0,71,0.00,,,0.00,0,Wunderground v.1.15,2013-10-26 04:11:00,
2013-10-25 23:15:00,47.2,38.3,30.17,SSE,166,4.0,4.0,71,0.00,,,0.00,0,Wunderground v.1.15,2013-10-26 04:15:00,
2013-10-25 23:21:00,47.3,38.4,30.16,SSE,162,4.0,5.0,71,0.00,,,0.00,0,Wunderground v.1.15,2013-10-26 04:21:00,
2013-10-25 23:27:00,47.2,38.3,30.16,South,172,5.0,9.0,71,0.00,,,0.00,0,Wunderground v.1.15,2013-10-26 04:27:00,
2013-10-25 23:29:00,47.2,38.6,30.16,South,179,5.0,9.0,72,0.00,,,0.00,0,Wunderground v.1.15,2013-10-26 04:29:00,
2013-10-25 23:35:00,47.2,38.6,30.16,SSE,163,5.0,6.0,72,0.00,,,0.00,0,Wunderground v.1.15,2013-10-26 04:35:00,
2013-10-25 23:40:00,47.3,38.7,30.15,South,173,5.0,5.0,72,0.00,,,0.00,0,Wunderground v.1.15,2013-10-26 04:40:00,
2013-10-25 23:47:00,47.4,38.8,30.15,South,170,5.0,5.0,72,0.00,,,0.00,0,Wunderground v.1.15,2013-10-26 04:47:00,
2013-10-25 23:53:00,47.5,38.9,30.14,South,171,5.0,5.0,72,0.00,,,0.00,0,Wunderground v.1.15,2013-10-26 04:53:00,
2013-10-25 23:59:00,47.8,39.2,30.14,SSE,165,5.0,5.0,72,0.00,,,0.00,0,Wunderground v.1.15,2013-10-26 04:59:00,